Location: Melara
(45.0500°N, 11.1833°E)
Time: 20:47:14
(UTC+00:00)

Meteor 1-28 Rocket - Pass Details

Date: 26 May 2022
Orbit: 499 x 518 km, 97.4° (Epoch: 03 July)

Event Time Altitude Azimuth Distance (km) Brightness Sun altitude
Exits shadow 02:04:31 21° 207° (SSW) 1,183 4.4 -13.1°
Maximum altitude 02:06:29 37° 262° (W) 808 3.8 -12.9°
Drops below altitude 10° 02:09:59 10° 331° (NNW) 1,737 6.1 -12.5°
Sets 02:12:11 0° 340° (NNW) 2,624 7.2 -12.2°
